Location: Hilton Head Island
(32.2163°N, 80.7526°W)
Time: 13:26:09
(UTC-05:00)

Vanguard 2 - Pass Details

Date: 19 February 2026
Orbit: 553 x 2896 km, 32.9° (Epoch: 6 March)

Event Time Altitude Azimuth Distance (km) Brightness Sun altitude
Exits shadow 03:41:24 19° 115° (ESE) 2,160 10.1 -42.7°
Drops below altitude 10° 03:43:14 10° 100° (E) 2,548 10.7 -42.4°
Sets 03:45:39 0° 87° (E) 3,259 11.6 -41.9°
